Regional Weather Roundup
Issued by NWS

Home | Current Version | Previous Version | Text Only | Print | Product List | Glossary On
Versions: 1 2 3 4 5 6 7 8 9 10 11 12 13 14 15 16 17 18 19 20 21 22 23 24 25 26 27 28 29 30 31 32 33 34 35 36 37 38 39 40 41 42 43 44 45 46 47 48 49 50
000
ASUS43 KFSD 180910
RWRSD

WEATHER ROUNDUP FOR SOUTH DAKOTA
NATIONAL WEATHER SERVICE SIOUX FALLS SD
300 AM CST SUN FEB 18 2018

NOTE: "FAIR" INDICATES FEW OR NO CLOUDS BELOW 12,000 FEET WITH NO
SIGNIFICANT WEATHER AND/OR OBSTRUCTIONS TO VISIBILITY.


SDZ001>005-009-010-012>017-181000-
NORTHWEST AND NORTH CENTRAL SOUTH DAKOTA

CITY           SKY/WX    TMP DP  RH WIND       PRES   REMARKS
BUFFALO          N/A     16  11  80 E8        29.41F WCI   5
FAITH            N/A     20  19  96 E15       29.48F WCI   6
MOBRIDGE       CLOUDY    23  17  78 E29G36    29.58F WCI   6
$$

SDZ012>016-024>037-041>051-057-063-072>074-181000-
SOUTHWEST AND SOUTH CENTRAL SOUTH DAKOTA

CITY           SKY/WX    TMP DP  RH WIND       PRES   REMARKS
RAPID CTY ARPT CLOUDY    22  20  92 E5        29.41F WCI  16
PIERRE         CLOUDY    29  25  85 SE25      29.54F WCI  14
CUSTER         CLOUDY    34  12  40 SW5       29.43F WCI  30
ELLSWORTH AFB  CLOUDY    25  23  94 SW3       29.40F
PHILIP         CLOUDY    33  25  72 E6        29.45F WCI  28
PINE RIDGE     CLOUDY    39  23  52 S23G31    29.48F
SPEARFISH        N/A     19  18  93 NW6       29.41F WCI  11
WINNER         FAIR      38  23  55 S22G36    29.57F
$$

SDZ004>011-016>023-039-040-181000-
NORTHEAST SOUTH DAKOTA

CITY           SKY/WX    TMP DP  RH WIND       PRES   REMARKS
ABERDEEN       MOCLDY    23  18  81 E12       29.77F WCI  12
WATERTOWN      CLOUDY    24  19  81 E10       29.80F WCI  14
BROOKINGS      CLOUDY    24  21  88 SE20      29.83F WCI  10
SISSETON         N/A     18  15  88 E8        29.87F WCI   8
$$

SDZ017-020-022-023-036>040-048>070-181000-
SOUTHEAST SOUTH DAKOTA

CITY           SKY/WX    TMP DP  RH WIND       PRES   REMARKS
SIOUX FALLS    CLOUDY    25  21  85 SE14      29.87F WCI  13
HURON          CLOUDY    27  22  81 SE20G26   29.71F WCI  13
CHAMBERLAIN    PTCLDY    30  28  91 E12       29.64F WCI  21
MITCHELL       CLOUDY    28  25  88 SE23      29.75F WCI  14
YANKTON        CLOUDY    28  25  88 SE22      29.83F WCI  14
$$

ABBREVIATIONS USED IN REMARKS
   TC - TEMPERATURE IN CELSIUS
  WCI - WIND CHILL INDEX
   HX - HEAT INDEX
  VSB - VISIBILITY




USA.gov is the U.S. government's official web portal to all federal, state and local government web resources and services.